EW1036 Weather Reports


time (UTC)temp
C
wind
direction
speed
KPH
gust
KPH
rain 1hr
cm
rain 24hr
cm
rain mn
cm
humidity
%
barometer
mb
20260503174550 17 75 1.6 9.7 0.00 1.17 0.00 41 1018.2
20260503174033 17 0 0.0 4.8 0.00 1.17 0.00 42 1018.2
20260503173533 17 73 0.0 8.0 0.00 1.17 0.00 47 1018.2
20260503173054 17 287 1.6 8.0 0.00 1.17 0.00 50 1018.3
20260503172534 16 0 0.0 8.0 0.00 1.17 0.00 51 1018.2
20260503172033 16 0 0.0 8.0 0.00 1.17 0.00 48 1018.3
20260503171549 16 142 1.6 11.3 0.00 1.17 0.00 47 1018.3
20260503171033 16 101 1.6 11.3 0.00 1.17 0.00 43 1018.3
20260503170534 16 0 1.6 6.4 0.00 1.17 0.00 54 1018.4
20260503150533 13 0 0.0 11.3 0.00 1.45 0.00 70 1018.7
20260503131035 10 304 1.6 8.0 0.00 1.45 0.00 87 1018.2
20260503130535 9 67 1.6 9.7 0.00 1.45 0.00 88 1018.2
20260503110533 8 0 0.0 0.0 0.00 1.60 0.00 94 1016.7
20260503081547 9 0 0.0 0.0 0.00 1.68 0.00 94 1014.7
20260503081032 9 0 0.0 0.0 0.00 1.68 0.00 94 1014.7
20260503080533 9 0 0.0 0.0 0.00 1.68 0.00 94 1014.7
20260503072532 9 0 0.0 0.0 0.00 1.68 0.00 94 1014.2
20260503072033 9 0 0.0 0.0 0.00 1.68 0.00 94 1014.2
20260503071554 9 0 0.0 0.0 0.00 1.68 0.00 94 1014.2
20260503071033 9 0 0.0 0.0 0.00 1.68 0.00 94 1014.3
20260503070531 9 0 0.0 0.0 0.00 1.68 0.00 94 1014.3
20260503060105 10 0 0.0 0.0 0.00 1.68 0.00 94 1013.7
20260503055033 10 0 0.0 0.0 0.00 1.68 0.00 94 1013.6
20260503054543 10 0 0.0 0.0 0.00 1.68 0.00 94 1013.5
20260503054033 10 0 0.0 0.0 0.00 1.68 0.00 94 1013.4
20260503053534 10 0 0.0 0.0 0.00 1.68 0.00 94 1013.5
20260503053046 10 0 0.0 0.0 0.00 1.68 0.00 94 1013.6
20260503052533 10 0 0.0 0.0 0.00 1.68 0.00 94 1013.5
20260503052033 10 0 0.0 0.0 0.00 1.68 0.00 94 1013.4
20260503051548 10 0 0.0 0.0 0.00 1.68 0.00 94 1013.5
20260503051032 10 0 0.0 0.0 0.00 1.68 0.00 94 1013.5
20260503050533 10 0 0.0 0.0 0.00 1.68 0.00 94 1013.5
20260503050049 10 0 0.0 0.0 0.00 1.68 0.00 94 1013.5
20260503045535 10 0 0.0 0.0 0.00 1.68 0.00 94 1013.3
20260503045032 10 0 0.0 0.0 0.00 1.68 0.00 94 1013.5
20260503044545 10 0 0.0 0.0 0.00 1.68 0.00 94 1013.4
20260503044031 10 0 0.0 0.0 0.00 1.68 0.00 94 1013.4
20260503043533 11 0 0.0 0.0 0.00 1.68 0.00 94 1013.4
20260503043048 10 0 0.0 0.0 0.00 1.68 0.00 94 1013.2
20260503042532 10 0 0.0 0.0 0.00 1.68 0.00 94 1013.1
20260503042033 10 0 0.0 0.0 0.00 1.68 0.00 94 1013.1
20260503041542 10 0 0.0 0.0 0.00 1.68 0.00 94 1013.1
20260503041035 10 0 0.0 0.0 0.00 1.68 0.00 94 1013.1
20260503040532 10 0 0.0 0.0 0.00 1.68 0.00 94 1013.0
20260503040047 10 0 0.0 0.0 0.00 1.68 0.00 94 1013.0
20260503035532 10 0 0.0 0.0 0.00 1.68 1.68 94 1012.9
20260503035032 11 0 0.0 0.0 0.00 1.68 1.68 94 1012.9
20260503034549 11 0 0.0 0.0 0.00 1.68 1.68 94 1012.9
20260503034031 11 0 0.0 0.0 0.00 1.68 1.68 94 1013.0
20260503033532 11 0 0.0 0.0 0.00 1.68 1.68 94 1013.1
20260503033056 11 0 0.0 1.6 0.00 1.68 1.68 94 1012.9
20260503032532 11 0 0.0 1.6 0.00 1.68 1.68 94 1013.0
20260503032032 11 0 0.0 1.6 0.00 1.68 1.68 94 1013.0
20260503031548 11 0 0.0 0.0 0.00 1.68 1.68 94 1012.9
20260503031034 11 0 0.0 3.2 0.00 1.68 1.68 94 1013.0
20260503030532 11 0 0.0 3.2 0.00 1.68 1.68 94 1012.9
20260503030045 11 0 0.0 1.6 0.00 1.68 1.68 94 1012.8
20260503025532 11 0 0.0 0.0 0.03 1.68 1.68 94 1012.8
20260503025032 11 0 0.0 0.0 0.03 1.68 1.68 94 1012.7
20260503024543 11 0 0.0 0.0 0.03 1.68 1.68 94 1012.8
20260503024032 11 0 0.0 0.0 0.03 1.68 1.68 94 1012.8
20260503023531 11 0 0.0 3.2 0.03 1.68 1.68 94 1012.8
20260503023050 11 0 0.0 3.2 0.03 1.68 1.68 94 1013.0
20260503022532 11 0 0.0 0.0 0.03 1.68 1.68 94 1013.1
20260503022034 11 0 0.0 0.0 0.03 1.68 1.68 94 1013.0
20260503021548 11 0 0.0 3.2 0.03 1.68 1.68 94 1012.9
20260503021032 11 0 0.0 3.2 0.03 1.68 1.68 94 1012.7
20260503020532 11 0 0.0 0.0 0.03 1.68 1.68 94 1012.6
20260503020042 11 0 0.0 0.0 0.03 1.68 1.68 94 1012.7
20260503015532 11 0 0.0 0.0 0.00 1.65 1.65 94 1012.7
20260503015033 11 0 0.0 0.0 0.00 1.65 1.65 94 1012.4
20260503014542 11 0 0.0 1.6 0.00 1.65 1.65 94 1012.4
20260503014031 11 0 0.0 1.6 0.00 1.65 1.65 94 1012.5
20260503013531 11 0 0.0 1.6 0.00 1.65 1.65 93 1012.4
20260503013042 11 0 0.0 1.6 0.00 1.65 1.65 93 1012.4
20260503012533 11 0 0.0 1.6 0.00 1.65 1.65 93 1012.5
20260503012033 11 0 0.0 4.8 0.00 1.65 1.65 93 1012.4
20260503011559 11 0 0.0 4.8 0.00 1.65 1.65 93 1012.4
20260503011032 11 0 0.0 4.8 0.00 1.65 1.65 93 1012.2
20260503010532 11 0 0.0 6.4 0.00 1.65 1.65 93 1012.0
20260503010054 11 0 0.0 6.4 0.00 1.65 1.65 93 1012.2
20260503005533 11 0 0.0 4.8 0.00 1.65 1.65 93 1012.2
20260503005032 11 0 0.0 0.0 0.00 1.65 1.65 93 1012.1
20260503004542 11 0 0.0 0.0 0.00 1.65 1.65 93 1011.9
20260503004033 11 0 0.0 0.0 0.00 1.65 1.65 93 1011.9
20260503003533 11 0 0.0 4.8 0.00 1.65 1.65 93 1012.0
20260503003057 11 0 0.0 4.8 0.00 1.65 1.65 93 1011.9
20260503002531 11 0 0.0 3.2 0.00 1.65 1.65 93 1012.1
20260503002032 11 98 0.0 4.8 0.03 1.65 1.65 93 1011.9
20260503001557 11 0 0.0 4.8 0.03 1.65 1.65 93 1011.6
20260503001034 11 0 0.0 3.2 0.08 1.65 1.65 93 1011.4
20260503000532 11 0 0.0 6.4 0.10 1.65 1.65 93 1011.4
20260503000111 11 179 0.0 6.4 0.10 1.65 1.65 93 1011.4
20260502235531 11 86 0.0 4.8 0.10 1.65 1.65 93 1011.4
20260502235032 11 153 0.0 4.8 0.10 1.65 1.65 93 1011.3
20260502234554 11 0 0.0 4.8 0.13 1.65 1.65 93 1011.3
20260502234032 11 56 0.0 4.8 0.13 1.65 1.65 93 1011.4
20260502233532 12 0 0.0 3.2 0.18 1.65 1.65 93 1011.1
20260502233045 12 0 0.0 4.8 0.23 1.65 1.65 93 1011.0
20260502232531 12 0 0.0 4.8 0.28 1.65 1.65 93 1010.8
20260502232031 12 0 0.0 4.8 0.28 1.63 1.63 93 1010.5
20260502231549 12 72 1.6 4.8 0.28 1.63 1.63 93 1010.6
20260502231030 12 0 0.0 3.2 0.25 1.57 1.57 93 1010.7
20260502230532 12 0 0.0 3.2 0.25 1.55 1.55 93 1010.6
20260502230044 12 0 0.0 4.8 0.25 1.55 1.55 93 1010.7
20260502225532 12 0 0.0 4.8 0.25 1.55 1.55 93 1010.7
20260502225032 12 0 0.0 4.8 0.25 1.55 1.55 93 1010.7
20260502224542 12 0 0.0 4.8 0.25 1.52 1.52 93 1010.7
20260502224032 12 0 0.0 8.0 0.25 1.52 1.52 93 1010.7
20260502223532 12 0 1.6 8.0 0.20 1.47 1.47 92 1010.7
20260502223043 12 65 1.6 8.0 0.18 1.42 1.42 92 1010.7
20260502222531 12 0 0.0 6.4 0.13 1.37 1.37 93 1010.9
20260502222031 12 73 0.0 8.0 0.13 1.32 1.32 93 1010.9
20260502221543 12 0 0.0 8.0 0.13 1.32 1.32 93 1010.5
20260502221032 12 0 0.0 8.0 0.13 1.32 1.32 93 1010.3
20260502220533 12 0 0.0 8.0 0.10 1.30 1.30 93 1010.1
20260502220042 13 69 0.0 4.8 0.13 1.30 1.30 93 1010.1
20260502215532 13 263 0.0 6.4 0.15 1.30 1.30 93 1010.1
20260502215033 13 136 0.0 6.4 0.18 1.30 1.30 93 1009.9
20260502214543 13 0 0.0 6.4 0.18 1.27 1.27 93 1009.9
20260502214031 13 86 0.0 6.4 0.20 1.27 1.27 94 1009.7
20260502213531 13 0 1.6 6.4 0.20 1.27 1.27 94 1009.4
20260502213043 13 76 0.0 6.4 0.18 1.24 1.24 94 1009.6
20260502212532 13 0 1.6 6.4 0.20 1.24 1.24 94 1009.7
20260502212033 13 70 0.0 6.4 0.18 1.22 1.22 94 1009.7
20260502211546 13 74 1.6 6.4 0.20 1.22 1.22 93 1009.7
20260502211031 13 67 0.0 8.0 0.18 1.19 1.19 93 1009.6
20260502210531 13 0 0.0 8.0 0.20 1.19 1.19 93 1009.7
20260502210043 13 0 0.0 6.4 0.20 1.17 1.17 93 1009.7
20260502205532 13 0 0.0 6.4 0.18 1.14 1.14 93 1009.8
20260502205036 13 0 0.0 6.4 0.15 1.12 1.12 93 1009.8
20260502204543 13 0 0.0 6.4 0.15 1.09 1.09 93 1009.9
20260502204033 13 0 0.0 6.4 0.13 1.07 1.07 93 1009.9
20260502203532 13 0 0.0 6.4 0.13 1.07 1.07 93 1009.9
20260502203041 13 0 0.0 6.4 0.13 1.07 1.07 93 1009.9
20260502202531 13 0 0.0 6.4 0.13 1.04 1.04 93 1010.1
20260502202032 13 0 0.0 6.4 0.13 1.04 1.04 93 1010.1
20260502201547 13 0 0.0 4.8 0.10 1.02 1.02 93 1010.2
20260502201032 13 0 0.0 4.8 0.10 1.02 1.02 93 1010.1
20260502200533 13 0 0.0 4.8 0.08 0.99 0.99 93 1010.0
20260502200044 13 0 0.0 6.4 0.08 0.97 0.97 93 1010.0
20260502195531 13 0 0.0 6.4 0.08 0.97 0.97 93 1010.2
20260502195035 13 298 0.0 6.4 0.10 0.97 0.97 93 1010.1
20260502194544 13 0 0.0 4.8 0.08 0.94 0.94 93 1010.2
20260502194032 13 0 0.0 8.0 0.08 0.94 0.94 93 1010.4
20260502193533 14 0 1.6 8.0 0.10 0.94 0.94 93 1010.4
20260502193046 14 0 0.0 3.2 0.10 0.94 0.94 93 1010.6
20260502192532 14 0 0.0 4.8 0.08 0.91 0.91 93 1010.5
20260502192033 14 0 0.0 4.8 0.08 0.91 0.91 93 1010.6
20260502191548 14 71 0.0 3.2 0.10 0.91 0.91 93 1010.3
20260502191033 14 129 0.0 3.2 0.10 0.91 0.91 93 1010.4
20260502190533 14 0 0.0 4.8 0.08 0.89 0.89 93 1010.3
20260502190044 14 0 0.0 4.8 0.08 0.89 0.89 93 1010.3
20260502185533 14 0 0.0 4.8 0.08 0.89 0.89 93 1010.6
20260502185033 14 197 0.0 3.2 0.08 0.86 0.86 93 1010.8
20260502184542 14 0 0.0 11.3 0.08 0.86 0.86 93 1011.0
20260502184033 14 0 1.6 11.3 0.10 0.86 0.86 93 1011.1
20260502183531 14 0 0.0 4.8 0.10 0.84 0.84 93 1010.9
20260502183044 14 0 0.0 1.6 0.13 0.84 0.84 93 1010.8
20260502182531 14 0 0.0 6.4 0.13 0.84 0.84 93 1010.7
20260502182031 14 0 0.0 6.4 0.15 0.84 0.84 93 1010.7
20260502181549 14 0 0.0 6.4 0.18 0.81 0.81 93 1010.8
20260502181033 14 0 0.0 6.4 0.20 0.81 0.81 93 1010.7
20260502180534 14 70 0.0 8.0 0.25 0.81 0.81 93 1010.6